"Pseudo-MPEC" for P116h6j

Created 2020 Oct 1 9:07:07 UT using Find_Orb

Click here for an explanation of pseudo-MPECs

 
 Astrometry: 
     P116h6j  C2020 09 162]dAstrometryA++esCwCUN(Ks)cSjb5q:]redacted;@9dBZvYyF51
     P116h6j  C2020 09 16qd*]7(ZZ7cbb\?clickkyr5b,VELIcH*`')1Fgn]o)r`lZH(ym'LF51
     P116h6j  C2020 09 16)C4iT3#w-7hereFjHlXq)'!hF66forN5*U;gSexplanation)V-=F51

Station data:
(F51) Pan-STARRS 1, Haleakala  (N20.707235 W156.255910)  US/Hawaii.
   Observers N. Primak, A. Schultz, S. Watters, J. Thiel, T. Goggia. Measurer
   PS1 Science Consortium. 1.8-m Ritchey-Chrétien + CCD.

Orbital elements:  P116h6j
   Perihelion 2020 Apr 10.807952 +/- 59.1 TT = 19:23:27 (JD 2458950.307952)
Epoch 2020 Sep 16.0 TT = JDT 2459108.5   Earth MOID: 0.0045   AutoNEOCP
M 150.29903597 +/- 110              (J2000 ecliptic)
n   0.95010487 +/- 0.463            Peri.   26.47663 +/- 100
a   1.02475886 +/- 0.333            Node   175.05557 +/- 34
e   0.0278136 +/- 0.284             Incl.   26.16689 +/- 19
P   1.04/378.90d           H 26.1   G  0.15   U 12.2  SR
q 0.99625660 +/- 0.174    Q 1.05326113 +/- 22
From 3 observations 2020 Sept. 16 (32.7 min); mean residual 0".54
Residuals in arcseconds: 
200916 F51  .09-  .53+    200916 F51  .18+  1.1-    200916 F51  .09-  .53+    

Ephemerides (geocentric):
Date (UTC) HH   RA              Dec         delta   r     elong  mag " sig PA
---- -- -- --  -------------   -----------  ------ ------ -----  --- ---- ---
2020 10 01 09  00 27 48.633   -63 28 41.65  .11627 1.0523 113.2 23.7  34d  25
2020 10 01 10  00 27 56.943   -63 31 55.40  .11656 1.0523 113.1 23.7  34d  25
2020 10 01 11  00 28 05.243   -63 35 08.04  .11685 1.0523 113.1 23.7  34d  25
2020 10 01 12  00 28 13.533   -63 38 19.58  .11714 1.0523 113.0 23.7  34d  25
2020 10 01 13  00 28 21.814   -63 41 30.03  .11743 1.0523 112.9 23.7  34d  25
2020 10 01 14  00 28 30.084   -63 44 39.40  .11772 1.0523 112.9 23.8  34d  25
2020 10 01 15  00 28 38.344   -63 47 47.70  .11801 1.0523 112.8 23.8  34d  25
2020 10 01 16  00 28 46.595   -63 50 54.93  .11830 1.0523 112.7 23.8  34d  25
2020 10 01 17  00 28 54.835   -63 54 01.09  .11860 1.0523 112.7 23.8  34d  25
2020 10 01 18  00 29 03.066   -63 57 06.21  .11889 1.0523 112.6 23.8  33d  25
2020 10 01 19  00 29 11.286   -64 00 10.28  .11918 1.0523 112.5 23.8  33d  25
2020 10 01 20  00 29 19.497   -64 03 13.31  .11947 1.0523 112.5 23.8  33d  25
2020 10 01 21  00 29 27.697   -64 06 15.32  .11976 1.0524 112.4 23.8  33d  25
2020 10 01 22  00 29 35.888   -64 09 16.30  .12005 1.0524 112.3 23.8  33d  25
2020 10 01 23  00 29 44.068   -64 12 16.26  .12035 1.0524 112.3 23.8  33d  25
2020 10 02 00  00 29 52.239   -64 15 15.22  .12064 1.0524 112.2 23.8  33d  25
2020 10 02 01  00 30 00.400   -64 18 13.17  .12093 1.0524 112.1 23.8  33d  26
2020 10 02 02  00 30 08.550   -64 21 10.13  .12122 1.0524 112.1 23.8  33d  26
2020 10 02 03  00 30 16.691   -64 24 06.10  .12151 1.0524 112.0 23.8  33d  26
2020 10 02 04  00 30 24.821   -64 27 01.09  .12180 1.0524 111.9 23.8  33d  26
2020 10 02 05  00 30 32.942   -64 29 55.11  .12210 1.0524 111.9 23.9  33d  26
2020 10 02 06  00 30 41.052   -64 32 48.16  .12239 1.0524 111.8 23.9  33d  26
2020 10 02 07  00 30 49.152   -64 35 40.25  .12268 1.0524 111.7 23.9  33d  26
2020 10 02 08  00 30 57.243   -64 38 31.38  .12297 1.0524 111.7 23.9  33d  26
2020 10 02 09  00 31 05.323   -64 41 21.57  .12327 1.0524 111.6 23.9  33d  26
2020 10 02 10  00 31 13.394   -64 44 10.82  .12356 1.0524 111.5 23.9  33d  26
2020 10 02 11  00 31 21.454   -64 46 59.13  .12385 1.0524 111.5 23.9  33d  26
2020 10 02 12  00 31 29.504   -64 49 46.52  .12414 1.0524 111.4 23.9  33d  26
2020 10 02 13  00 31 37.544   -64 52 32.98  .12444 1.0524 111.4 23.9  33d  26
2020 10 02 14  00 31 45.574   -64 55 18.53  .12473 1.0524 111.3 23.9  32d  26
2020 10 02 15  00 31 53.594   -64 58 03.17  .12502 1.0524 111.2 23.9  32d  27
2020 10 02 16  00 32 01.604   -65 00 46.90  .12532 1.0524 111.2 23.9  32d  27
2020 10 02 17  00 32 09.604   -65 03 29.74  .12561 1.0524 111.1 23.9  32d  27
2020 10 02 18  00 32 17.594   -65 06 11.69  .12590 1.0524 111.0 23.9  32d  27
2020 10 02 19  00 32 25.574   -65 08 52.76  .12619 1.0524 111.0 23.9  32d  27
2020 10 02 20  00 32 33.543   -65 11 32.94  .12649 1.0525 110.9 24.0  32d  27
2020 10 02 21  00 32 41.503   -65 14 12.25  .12678 1.0525 110.9 24.0  32d  27
2020 10 02 22  00 32 49.452   -65 16 50.70  .12707 1.0525 110.8 24.0  32d  27
2020 10 02 23  00 32 57.392   -65 19 28.28  .12737 1.0525 110.7 24.0  32d  27
2020 10 03 00  00 33 05.321   -65 22 05.01  .12766 1.0525 110.7 24.0  32d  27
2020 10 03 01  00 33 13.240   -65 24 40.89  .12795 1.0525 110.6 24.0  32d  27
2020 10 03 02  00 33 21.149   -65 27 15.92  .12825 1.0525 110.6 24.0  32d  27
2020 10 03 03  00 33 29.048   -65 29 50.12  .12854 1.0525 110.5 24.0  32d  27
2020 10 03 04  00 33 36.937   -65 32 23.49  .12883 1.0525 110.4 24.0  32d  28
2020 10 03 05  00 33 44.816   -65 34 56.02  .12913 1.0525 110.4 24.0  32d  28
2020 10 03 06  00 33 52.685   -65 37 27.74  .12942 1.0525 110.3 24.0  32d  28
2020 10 03 07  00 34 00.543   -65 39 58.64  .12971 1.0525 110.3 24.0  32d  28
2020 10 03 08  00 34 08.392   -65 42 28.73  .13001 1.0525 110.2 24.0  32d  28